[TLELIST] Archives

 

[list_settings.list_name] Current TLEs

March 7th 2021 PST

HST 1 20580U 90037B 21065.97140324 .00000672 00000-0 29748-4 0 9997 2 20580 28.4709 23.1418 0002783 43.9670 8.1429 15.09574833495596 ISS (ZARYA) 1 25544U 98067A 21066.23151118 .00001388 00000-0 33309-4 0 9999 2 25544 51.6448 127.0034 0003359 78.9164 27.1418 15.49046922272794 CXO 1 25867U 99040B 21067.62100181 .00000629 00000-0 00000+0 0 9991 2 25867 57.3253 258.9498 8158623 226.3607 0.5726 0.37807044 21195 ____________________________________________________________________ These 2-Line ...Continue Reading

[list_settings.list_name] Current TLEs

March 6th 2021 PST

HST 1 20580U 90037B 21064.33683645 .00000700 00000-0 31511-4 0 9997 2 20580 28.4708 33.9559 0002721 27.0066 124.4963 15.09573385495512 ISS (ZARYA) 1 25544U 98067A 21065.26447957 .00001333 00000-0 32321-4 0 9993 2 25544 51.6450 131.7886 0003373 75.6705 34.1150 15.49043115272641 CXO 1 25867U 99040B 21064.97742616 .00000604 00000-0 00000-0 0 9995 2 25867 57.3817 259.0292 8153738 226.3943 0.6421 0.37802825 10047 ____________________________________________________________________ These 2-Line ...Continue Reading

[list_settings.list_name] Current TLEs

March 5th 2021 PST

HST 1 20580U 90037B 21063.27490087 .00000673 00000-0 29864-4 0 9992 2 20580 28.4707 40.9814 0002693 15.8838 113.1305 15.09572189495182 ISS (ZARYA) 1 25544U 98067A 21064.42751481 .00001953 00000-0 43541-4 0 9994 2 25544 51.6456 135.9239 0003174 76.4438 42.8920 15.49041732272516 CXO 1 25867U 99040B 21064.97742616 .00000604 00000-0 00000-0 0 9995 2 25867 57.3817 259.0292 8153738 226.3943 0.6421 0.37802825 10047 ____________________________________________________________________ These 2-Line ...Continue Reading

[list_settings.list_name] Current TLEs

March 4th 2021 PST

HST 1 20580U 90037B 21063.20541269 .00000708 00000-0 31994-4 0 9990 2 20580 28.4707 41.4411 0002690 15.1502 95.4850 15.09572319495338 ISS (ZARYA) 1 25544U 98067A 21063.45812277 .00002233 00000-0 48620-4 0 9992 2 25544 51.6454 140.7197 0003190 73.6312 36.2849 15.49038303272369 CXO 1 25867U 99040B 21064.97742616 .00000604 00000-0 00000-0 0 9995 2 25867 57.3817 259.0292 8153738 226.3943 0.6421 0.37802825 10047 ____________________________________________________________________ These 2-Line ...Continue Reading

[list_settings.list_name] Current TLEs

March 3rd 2021 PST

HST 1 20580U 90037B 21062.14195778 .00000674 00000-0 29914-4 0 9993 2 20580 28.4706 48.4768 0002650 3.6691 76.2083 15.09571043495176 ISS (ZARYA) 1 25544U 98067A 21062.25199093 .00001794 00000-0 40683-4 0 9995 2 25544 51.6465 146.6863 0003138 69.0757 150.3740 15.49030434272174 CXO 1 25867U 99040B 21062.33259870 .00000672 00000-0 00000-0 0 9993 2 25867 57.4438 259.1237 8151792 226.4194 0.5446 0.37809845 10038 ____________________________________________________________________ These 2-Line ...Continue Reading

[list_settings.list_name] Current TLEs

March 2nd 2021 PST

HST 1 20580U 90037B 21060.70274190 .00000638 00000-0 27731-4 0 9994 2 20580 28.4705 57.9981 0002593 347.8086 175.2136 15.09569424494969 ISS (ZARYA) 1 25544U 98067A 21060.87587971 .00000950 00000-0 25394-4 0 9992 2 25544 51.6466 153.4951 0003126 64.5650 35.9278 15.49020837271964 CXO 1 25867U 99040B 21062.33259870 .00000672 00000-0 00000-0 0 9993 2 25867 57.4438 259.1237 8151792 226.4194 0.5446 0.37809845 10038 ____________________________________________________________________ These 2-Line ...Continue Reading

[list_settings.list_name] Current TLEs

March 1st 2021 PST

HST 1 20580U 90037B 21059.44606101 .00000600 00000-0 25414-4 0 9999 2 20580 28.4704 66.3121 0002530 333.7502 186.3669 15.09567957494600 ISS (ZARYA) 1 25544U 98067A 21060.36116561 .00001249 00000-0 30810-4 0 9990 2 25544 51.6463 156.0408 0003083 62.1545 46.1573 15.49020332271889 CXO 1 25867U 99040B 21062.33259870 .00000672 00000-0 00000-0 0 9993 2 25867 57.4438 259.1237 8151792 226.4194 0.5446 0.37809845 10038 ____________________________________________________________________ These 2-Line ...Continue Reading

[list_settings.list_name] Current TLEs

February 28th 2021 PST

HST 1 20580U 90037B 21059.41666435 .00000718 00000-0 32600-4 0 9997 2 20580 28.4724 66.5092 0002566 332.9194 27.1240 15.09568849494763 ISS (ZARYA) 1 25544U 98067A 21059.39465302 .00001851 00000-0 41726-4 0 9998 2 25544 51.6460 160.8209 0003166 59.9878 55.0476 15.49019410271733 CXO 1 25867U 99040B 21059.68686374 .00000777 00000-0 00000+0 0 9995 2 25867 57.5336 259.2621 8150863 226.3996 0.4113 0.37814366 21161 ____________________________________________________________________ These 2-Line ...Continue Reading

[list_settings.list_name] Current TLEs

February 27th 2021 PST

HST 1 20580U 90037B 21058.35885430 .00000771 00000-0 35778-4 0 9995 2 20580 28.4721 73.5067 0002627 318.2133 41.8254 15.09567835494603 ISS (ZARYA) 1 25544U 98067A 21058.36080520 .00001857 00000-0 41832-4 0 9993 2 25544 51.6451 165.9342 0003077 55.8945 50.1274 15.49014891271570 CXO 1 25867U 99040B 21059.68686374 .00000777 00000-0 00000+0 0 9995 2 25867 57.5336 259.2621 8150863 226.3996 0.4113 0.37814366 21161 ____________________________________________________________________ These 2-Line ...Continue Reading

[list_settings.list_name] Current TLEs

February 26th 2021 PST

HST 1 20580U 90037B 21057.23493038 .00000696 00000-0 31269-4 0 9997 2 20580 28.4722 80.9420 0002557 303.3749 56.6588 15.09566338494431 ISS (ZARYA) 1 25544U 98067A 21057.31813127 .00001815 00000-0 41087-4 0 9990 2 25544 51.6437 171.0913 0002958 53.8881 353.8817 15.49009618271410 CXO 1 25867U 99040B 21057.04181448 .00000786 00000-0 00000-0 0 9996 2 25867 57.6135 259.3921 8147644 226.3672 0.4375 0.37808373 10021 ____________________________________________________________________ These 2-Line ...Continue Reading
  • This mailing list is a public mailing list - anyone may join or leave, at any time.
  • This mailing list is announce-only.

International Space Station (ISS) / Hubble Space Telescope (HST) / Chandra X-Ray Observatory Orbital Data via EMAIL

Privacy Policy:

Private list